Location: Newark
(6.0333°S, 36.1333°E)
Time: 19:19:33
(UTC+00:00)

Hubble Space Telescope - Visible Passes

Search period start: 13 November 2019 00:00
Search period end: 23 November 2019 00:00
Orbit: 536 x 540 km, 28.5° (Epoch: 13 November)

Date Brightness Start Highest point End Pass type
(mag) Time Alt. Az. Time Alt. Az. Time Alt. Az.
13 Nov 3.2 02:15:36 10° N 02:17:55 14° NNE 02:20:14 10° ENE visible
13 Nov 3.1 15:49:30 10° WNW 15:52:05 16° NNW 15:54:39 10° N visible
14 Nov 2.8 02:04:48 12° NNW 02:07:21 20° NNE 02:10:26 10° E visible
15 Nov 2.3 01:55:02 20° N 01:56:47 28° NNE 02:00:20 10° E visible
16 Nov 1.7 01:45:14 33° N 01:46:11 39° NNE 01:50:04 10° E visible
17 Nov 1.0 01:35:24 55° NNE 01:35:36 56° NNE 01:39:39 10° ESE visible
18 Nov 1.0 01:25:32 66° ESE 01:25:32 66° ESE 01:29:10 10° ESE visible
19 Nov 1.8 01:15:37 43° SE 01:15:37 43° SE 01:18:33 10° SE visible
20 Nov 2.6 01:05:39 28° SSE 01:05:39 28° SSE 01:07:52 10° SE visible
20 Nov 3.3 02:44:13 10° SW 02:45:20 11° SSW 02:46:28 10° S visible
21 Nov 3.2 00:55:38 19° SSE 00:55:38 19° SSE 00:57:06 10° SE visible
22 Nov 3.7 00:45:34 13° SSE 00:45:34 13° SSE 00:46:14 10° SSE visible
